�������l�o���
Date,Time,MP-1(��Sv/h),MP-2(��Sv/h),MP-3(��Sv/h),MP-4(��Sv/h),MP-5(��Sv/h),MP-6(��Sv/h),MP-7(��Sv/h),MP-8(��Sv/h),����,����(m/s),���J
2021/04/15,00:00,0.615,0.904,0.575,1.117,0.790,0.366,0.642,0.606,�k�k��,6.6,��
2021/04/15,00:10,0.614,0.903,0.576,1.115,0.791,0.366,0.643,0.606,�k�k��,6.0,��
2021/04/15,00:20,0.613,0.904,0.574,1.116,0.792,0.366,0.643,0.606,�k,6.7,��
2021/04/15,00:30,0.614,0.904,0.575,1.115,0.792,0.366,0.643,0.605,�k�k��,8.7,��
2021/04/15,00:40,0.612,0.906,0.574,1.114,0.791,0.365,0.642,0.606,�k�k��,9.6,��
2021/04/15,00:50,0.613,0.903,0.574,1.115,0.790,0.366,0.643,0.606,�k�k��,7.9,��
2021/04/15,01:00,0.613,0.902,0.575,1.115,0.792,0.365,0.644,0.604,�k�k��,8.7,��
2021/04/15,01:10,0.614,0.907,0.575,1.116,0.794,0.366,0.643,0.604,�k�k��,7.9,��
2021/04/15,01:20,0.615,0.905,0.574,1.118,0.792,0.365,0.644,0.606,�k�k��,8.0,��
2021/04/15,01:30,0.615,0.906,0.575,1.116,0.791,0.366,0.643,0.605,�k�k��,7.9,��
2021/04/15,01:40,0.615,0.906,0.574,1.117,0.791,0.365,0.644,0.606,�k�k��,7.5,��
2021/04/15,01:50,0.613,0.905,0.576,1.117,0.792,0.366,0.644,0.606,�k,6.3,��
2021/04/15,02:00,0.614,0.906,0.574,1.115,0.790,0.366,0.644,0.606,�k�k��,6.1,��
2021/04/15,02:10,0.615,0.904,0.573,1.116,0.791,0.367,0.642,0.607,�k�k��,5.2,��
2021/04/15,02:20,0.613,0.905,0.574,1.117,0.791,0.365,0.643,0.606,�k�k��,5.9,��
2021/04/15,02:30,0.612,0.905,0.576,1.116,0.791,0.366,0.643,0.606,�k�k��,4.6,��
2021/04/15,02:40,0.614,0.906,0.574,1.117,0.795,0.366,0.644,0.608,�k�k��,5.7,��
2021/04/15,02:50,0.615,0.904,0.573,1.116,0.789,0.366,0.643,0.605,�k�k��,5.5,��
2021/04/15,03:00,0.614,0.907,0.572,1.116,0.792,0.367,0.642,0.606,�k�k��,4.7,��
2021/04/15,03:10,0.611,0.904,0.573,1.115,0.792,0.366,0.644,0.606,�k��,5.6,��
2021/04/15,03:20,0.613,0.905,0.573,1.118,0.791,0.368,0.644,0.606,�k��,6.4,��
2021/04/15,03:30,0.615,0.907,0.575,1.115,0.792,0.365,0.642,0.606,�k��,5.8,��
2021/04/15,03:40,0.612,0.904,0.576,1.117,0.792,0.366,0.642,0.605,�k�k��,7.4,��
2021/04/15,03:50,0.614,0.903,0.575,1.116,0.792,0.365,0.642,0.606,�k��,7.1,��
2021/04/15,04:00,0.613,0.905,0.573,1.116,0.792,0.365,0.642,0.605,�k��,7.2,��
2021/04/15,04:10,0.613,0.904,0.572,1.116,0.792,0.365,0.644,0.605,�k��,6.2,��
2021/04/15,04:20,0.614,0.906,0.574,1.118,0.792,0.366,0.642,0.605,�k��,5.9,��
2021/04/15,04:30,0.612,0.904,0.576,1.117,0.791,0.366,0.643,0.605,�k��,5.3,��
2021/04/15,04:40,0.613,0.904,0.575,1.115,0.792,0.365,0.643,0.605,�k��,4.7,��
2021/04/15,04:50,0.612,0.904,0.573,1.117,0.792,0.366,0.643,0.604,�k��,5.3,��
2021/04/15,05:00,0.614,0.905,0.574,1.118,0.791,0.365,0.642,0.605,�k��,5.4,��
2021/04/15,05:10,0.614,0.904,0.574,1.116,0.794,0.365,0.642,0.606,���k��,5.9,��
2021/04/15,05:20,0.614,0.904,0.576,1.115,0.791,0.365,0.643,0.605,���k��,6.5,��
2021/04/15,05:30,0.614,0.904,0.574,1.120,0.791,0.365,0.643,0.606,���k��,5.9,��
2021/04/15,05:40,0.614,0.906,0.574,1.117,0.793,0.365,0.642,0.605,���k��,6.1,��
2021/04/15,05:50,0.614,0.906,0.574,1.115,0.792,0.365,0.644,0.605,�k��,5.6,��
2021/04/15,06:00,0.614,0.904,0.574,1.117,0.791,0.364,0.643,0.606,�k��,6.1,��
2021/04/15,06:10,0.613,0.904,0.575,1.119,0.793,0.364,0.643,0.606,�k��,6.0,��
2021/04/15,06:20,0.614,0.906,0.575,1.118,0.792,0.365,0.641,0.605,���k��,5.5,��
2021/04/15,06:30,0.613,0.906,0.573,1.116,0.794,0.367,0.643,0.606,�k��,4.8,��
2021/04/15,06:40,0.616,0.904,0.574,1.118,0.792,0.365,0.645,0.606,�k��,4.5,��
2021/04/15,06:50,0.613,0.907,0.574,1.118,0.790,0.366,0.644,0.605,���k��,3.8,��
2021/04/15,07:00,0.615,0.903,0.574,1.118,0.793,0.365,0.646,0.606,�k�k��,3.0,��
2021/04/15,07:10,0.617,0.906,0.575,1.119,0.791,0.367,0.644,0.605,�k��,2.9,��
2021/04/15,07:20,0.616,0.905,0.575,1.118,0.792,0.367,0.643,0.606,�k�k��,2.6,��
2021/04/15,07:30,0.616,0.906,0.575,1.118,0.793,0.366,0.645,0.605,�k�k��,3.8,��
2021/04/15,07:40,0.616,0.907,0.575,1.118,0.793,0.364,0.645,0.606,�k,2.6,��
2021/04/15,07:50,0.615,0.903,0.577,1.121,0.793,0.364,0.645,0.605,�k�k��,3.9,��
2021/04/15,08:00,0.616,0.906,0.576,1.119,0.795,0.364,0.646,0.605,�k�k��,3.4,��
2021/04/15,08:10,0.617,0.905,0.576,1.121,0.794,0.364,0.645,0.606,�k,3.1,��
2021/04/15,08:20,0.617,0.903,0.577,1.117,0.795,0.364,0.644,0.609,�k�k��,4.0,��
2021/04/15,08:30,0.618,0.905,0.576,1.118,0.795,0.363,0.646,0.606,�k��,4.1,��
2021/04/15,08:40,0.616,0.904,0.576,1.120,0.795,0.364,0.645,0.607,�k�k��,3.9,��
2021/04/15,08:50,0.618,0.904,0.578,1.118,0.795,0.364,0.645,0.607,�k��,4.4,��
2021/04/15,09:00,0.615,0.903,0.577,1.119,0.797,0.364,0.643,0.605,�k��,5.3,��
2021/04/15,09:10,0.617,0.905,0.576,1.119,0.797,0.364,0.643,0.605,�k��,5.0,��
2021/04/15,09:20,0.618,0.905,0.575,1.121,0.797,0.364,0.643,0.606,�k��,5.8,��
2021/04/15,09:30,0.617,0.905,0.578,1.119,0.797,0.364,0.643,0.604,�k��,5.9,��
2021/04/15,09:40,0.617,0.903,0.579,1.120,0.797,0.366,0.644,0.603,�k��,5.7,��
2021/04/15,09:50,0.618,0.905,0.577,1.118,0.798,0.365,0.644,0.603,�k��,5.8,��
2021/04/15,10:00,0.618,0.907,0.577,1.125,0.799,0.364,0.644,0.604,�k��,5.4,��
2021/04/15,10:10,0.618,0.905,0.578,1.121,0.799,0.366,0.644,0.605,���k��,5.6,��
2021/04/15,10:20,0.619,0.904,0.578,1.122,0.798,0.365,0.644,0.604,�k��,5.3,��
2021/04/15,10:30,0.619,0.911,0.579,1.120,0.798,0.365,0.643,0.606,�k��,4.5,��
2021/04/15,10:40,0.619,0.907,0.578,1.123,0.800,0.367,0.644,0.606,�k��,4.0,��
2021/04/15,10:50,0.620,0.909,0.580,1.120,0.800,0.365,0.645,0.606,�k��,4.0,��
2021/04/15,11:00,0.620,0.910,0.580,1.122,0.801,0.366,0.644,0.605,�k��,4.4,��
2021/04/15,11:10,0.620,0.910,0.579,1.124,0.802,0.365,0.645,0.604,�k��,5.1,��
2021/04/15,11:20,0.620,0.912,0.579,1.122,0.800,0.366,0.646,0.605,�k��,4.9,��
2021/04/15,11:30,0.621,0.910,0.580,1.123,0.801,0.365,0.645,0.606,�k��,4.3,��
2021/04/15,11:40,0.620,0.910,0.581,1.122,0.801,0.365,0.645,0.605,���k��,4.1,��
2021/04/15,11:50,0.622,0.913,0.580,1.123,0.802,0.364,0.645,0.603,���k��,4.3,��
2021/04/15,12:00,0.620,0.912,0.580,1.124,0.801,0.365,0.645,0.604,�k��,4.9,��
2021/04/15,12:10,0.619,0.916,0.580,1.126,0.802,0.367,0.645,0.607,���k��,4.6,��
2021/04/15,12:20,0.622,0.913,0.580,1.122,0.802,0.367,0.647,0.606,���k��,4.2,��
2021/04/15,12:30,0.622,0.914,0.580,1.124,0.802,0.368,0.645,0.605,�k��,5.5,��
2021/04/15,12:40,0.620,0.912,0.579,1.125,0.802,0.367,0.646,0.606,�k��,4.9,��
2021/04/15,12:50,0.622,0.914,0.580,1.124,0.801,0.368,0.645,0.607,���k��,4.2,��
2021/04/15,13:00,0.621,0.914,0.580,1.123,0.802,0.369,0.647,0.605,�k��,3.8,��
2021/04/15,13:10,0.623,0.913,0.578,1.125,0.804,0.368,0.647,0.606,���k��,4.1,��
2021/04/15,13:20,0.621,0.915,0.580,1.126,0.804,0.368,0.646,0.606,�k��,4.1,��
2021/04/15,13:30,0.623,0.912,0.580,1.126,0.804,0.369,0.647,0.606,�k��,3.1,��
2021/04/15,13:40,0.621,0.913,0.580,1.124,0.805,0.368,0.646,0.606,���k��,3.5,��
2021/04/15,13:50,0.622,0.913,0.580,1.127,0.804,0.369,0.646,0.607,���k��,2.8,��
2021/04/15,14:00,0.622,0.913,0.579,1.125,0.806,0.367,0.646,0.605,��,3.4,��
2021/04/15,14:10,0.622,0.915,0.579,1.127,0.804,0.368,0.647,0.605,���쓌,4.6,��
2021/04/15,14:20,0.622,0.914,0.580,1.127,0.804,0.369,0.645,0.606,���쓌,3.5,��
2021/04/15,14:30,0.621,0.914,0.581,1.128,0.806,0.369,0.646,0.606,�쓌,3.7,��
2021/04/15,14:40,0.622,0.915,0.580,1.128,0.806,0.368,0.647,0.606,���쓌,3.6,��
2021/04/15,14:50,0.622,0.915,0.580,1.124,0.805,0.368,0.646,0.606,��,3.2,��
2021/04/15,15:00,0.623,0.916,0.582,1.126,0.806,0.368,0.646,0.607,�쓌,3.2,��
2021/04/15,15:10,0.623,0.916,0.580,1.127,0.806,0.368,0.647,0.606,���쓌,2.8,��
2021/04/15,15:20,0.622,0.917,0.581,1.126,0.807,0.367,0.646,0.606,���쓌,2.3,��
2021/04/15,15:30,0.623,0.919,0.582,1.124,0.809,0.368,0.649,0.607,�쓌,3.1,��
2021/04/15,15:40,0.622,0.918,0.584,1.127,0.807,0.369,0.647,0.605,�쓌,1.7,��
2021/04/15,15:50,0.621,0.917,0.582,1.127,0.806,0.369,0.646,0.605,��쓌,3.1,��
2021/04/15,16:00,0.622,0.922,0.581,1.124,0.808,0.368,0.648,0.606,��쓌,3.5,��
2021/04/15,16:10,0.622,0.921,0.580,1.124,0.807,0.368,0.646,0.605,��쓌,2.9,��
2021/04/15,16:20,0.622,0.918,0.581,1.123,0.809,0.369,0.646,0.606,�쓌,2.8,��
2021/04/15,16:30,0.622,0.922,0.580,1.124,0.807,0.369,0.646,0.605,�쓌,3.5,��
2021/04/15,16:40,0.622,0.922,0.581,1.125,0.808,0.369,0.646,0.606,��쓌,2.9,��
2021/04/15,16:50,0.622,0.922,0.582,1.126,0.807,0.370,0.647,0.607,��쓌,3.4,��
2021/04/15,17:00,0.623,0.923,0.581,1.127,0.807,0.370,0.646,0.607,��쓌,3.8,��
2021/04/15,17:10,0.622,0.923,0.581,1.127,0.808,0.371,0.645,0.608,��쓌,4.4,��
2021/04/15,17:20,0.623,0.923,0.581,1.128,0.808,0.370,0.647,0.609,��쓌,4.3,��
2021/04/15,17:30,0.623,0.921,0.583,1.128,0.809,0.369,0.647,0.610,��,4.6,��
2021/04/15,17:40,0.624,0.925,0.583,1.128,0.805,0.369,0.647,0.609,��쓌,4.5,��
2021/04/15,17:50,0.627,0.922,0.582,1.129,0.805,0.370,0.646,0.608,��쓌,3.0,��
2021/04/15,18:00,0.624,0.923,0.583,1.126,0.808,0.369,0.646,0.608,��,4.7,��
2021/04/15,18:10,0.624,0.922,0.583,1.128,0.809,0.369,0.645,0.608,��,4.7,��
2021/04/15,18:20,0.624,0.924,0.583,1.127,0.810,0.369,0.646,0.609,��,4.8,��
2021/04/15,18:30,0.623,0.923,0.584,1.128,0.810,0.369,0.646,0.608,��,5.3,��
2021/04/15,18:40,0.625,0.920,0.583,1.129,0.809,0.368,0.648,0.607,��,5.7,��
2021/04/15,18:50,0.625,0.923,0.584,1.129,0.809,0.370,0.648,0.606,��,4.4,��
2021/04/15,19:00,0.624,0.921,0.583,1.129,0.809,0.369,0.649,0.608,��,4.8,��
2021/04/15,19:10,0.625,0.922,0.583,1.128,0.809,0.369,0.647,0.609,��,4.3,��
2021/04/15,19:20,0.625,0.922,0.583,1.129,0.810,0.368,0.648,0.608,��쐼,3.8,��
2021/04/15,19:30,0.623,0.922,0.584,1.129,0.808,0.370,0.649,0.608,��쐼,4.8,��
2021/04/15,19:40,0.625,0.922,0.582,1.130,0.808,0.367,0.649,0.607,��쐼,4.6,��
2021/04/15,19:50,0.623,0.922,0.582,1.130,0.808,0.369,0.647,0.608,��쐼,5.1,��
2021/04/15,20:00,0.625,0.922,0.584,1.130,0.811,0.370,0.648,0.608,��쐼,5.1,��
2021/04/15,20:10,0.624,0.923,0.584,1.129,0.808,0.369,0.649,0.608,��쐼,5.2,��
2021/04/15,20:20,0.623,0.920,0.583,1.130,0.809,0.367,0.647,0.609,��쐼,5.3,��
2021/04/15,20:30,0.625,0.922,0.581,1.131,0.810,0.368,0.648,0.609,��쐼,5.6,��
2021/04/15,20:40,0.623,0.923,0.584,1.129,0.809,0.368,0.647,0.609,��,5.7,��
2021/04/15,20:50,0.625,0.924,0.581,1.129,0.810,0.370,0.648,0.607,��쐼,5.8,��
2021/04/15,21:00,0.626,0.922,0.581,1.127,0.809,0.369,0.649,0.606,��쐼,5.6,��
2021/04/15,21:10,0.622,0.922,0.582,1.130,0.810,0.368,0.647,0.604,��쐼,5.5,��
2021/04/15,21:20,0.623,0.923,0.582,1.129,0.808,0.368,0.649,0.607,��,5.5,��
2021/04/15,21:30,0.624,0.922,0.582,1.128,0.808,0.368,0.646,0.609,��쐼,5.9,��
2021/04/15,21:40,0.623,0.922,0.582,1.130,0.809,0.368,0.647,0.607,��쐼,5.7,��
2021/04/15,21:50,0.624,0.923,0.582,1.132,0.809,0.368,0.647,0.607,��쐼,5.3,��
2021/04/15,22:00,0.625,0.921,0.583,1.128,0.806,0.368,0.646,0.608,��쐼,6.0,��
2021/04/15,22:10,0.623,0.922,0.582,1.129,0.808,0.367,0.648,0.606,��쐼,5.8,��
2021/04/15,22:20,0.623,0.920,0.583,1.131,0.808,0.367,0.648,0.608,��쐼,5.7,��
2021/04/15,22:30,0.624,0.921,0.582,1.130,0.810,0.369,0.647,0.607,��쐼,6.1,��
2021/04/15,22:40,0.623,0.921,0.584,1.128,0.811,0.367,0.646,0.607,��쐼,6.0,��
2021/04/15,22:50,0.623,0.920,0.582,1.129,0.808,0.368,0.647,0.607,��쐼,6.1,��
2021/04/15,23:00,0.623,0.922,0.583,1.129,0.811,0.368,0.648,0.608,��쐼,6.1,��
2021/04/15,23:10,0.623,0.922,0.583,1.128,0.810,0.368,0.649,0.606,��쐼,6.3,��
2021/04/15,23:20,0.623,0.920,0.583,1.129,0.808,0.369,0.647,0.607,��쐼,6.5,��
2021/04/15,23:30,0.622,0.920,0.581,1.131,0.808,0.368,0.648,0.608,��쐼,6.3,��
2021/04/15,23:40,0.623,0.921,0.581,1.129,0.808,0.367,0.649,0.609,��쐼,6.5,��
2021/04/15,23:50,0.621,0.921,0.581,1.130,0.810,0.368,0.648,0.607,��쐼,6.4,��
